This demonstration page uses our WeatherBlox Daily Observations layout. Learn more.

Left ArrowRight Arrow

Hourly Observations for January 13, 2017

Temp ( °F °C ) Dew Point ( °F °C ) Humidity (%) Winds ( mph kmh ) Pressure ( in mb ) Visibility ( mi km ) Precip ( " mm )
12:15 am 00:15 Mostly Cloudy 19 -7.3 9 -12.6 66 66 E 7 11 30.62 1037 10 16 0.00 0.00
12:35 am 00:35 Partly Cloudy 19 -7.4 9 -12.6 67 67 ENE 9 15 30.62 1037 10 16 0.00 0.00
12:55 am 00:55 Clear 19 -7.5 9 -13 65 65 E 10 17 30.62 1037 10 16 0.00 0.00
1:15 am 01:15 Clear 19 -7.5 9 -12.8 66 66 E 8 13 30.62 1037 10 16 0.00 0.00
1:35 am 01:35 Clear 19 -7.5 9 -13 65 65 E 13 20 30.62 1037 10 16 0.00 0.00
1:55 am 01:55 Clear 19 -7.5 9 -13 65 65 E 12 19 30.62 1037 10 16 0.00 0.00
2:15 am 02:15 Clear 19 -7.5 9 -12.8 66 66 E 8 13 30.65 1038 10 16 0.00 0.00
2:35 am 02:35 Clear 19 -7.5 9 -13 65 65 ESE 9 15 30.65 1038 10 16 0.00 0.00
2:55 am 02:55 Clear 19 -7.5 9 -13 65 65 ESE 7 11 30.65 1038 10 16 0.00 0.00
3:15 am 03:15 Clear 18 -7.6 9 -13 66 66 ESE 9 15 30.65 1038 10 16 0.00 0.00
3:35 am 03:35 Clear 18 -7.6 9 -13 66 66 ESE 9 15 30.65 1038 10 16 0.00 0.00
3:55 am 03:55 Clear 18 -7.7 9 -12.7 68 68 ESE 8 13 30.65 1038 10 16 0.00 0.00
4:15 am 04:15 Clear 18 -7.8 9 -12.8 68 68 E 9 15 30.65 1038 10 16 0.00 0.00
4:35 am 04:35 Clear 18 -8 9 -13 68 68 E 9 15 30.65 1038 10 16 0.00 0.00
4:55 am 04:55 Partly Cloudy 17 -8.3 9 -12.7 71 71 E 7 11 30.68 1039 10 16 0.00 0.00
5:15 am 05:15 Mostly Cloudy 17 -8.5 9 -12.6 73 73 E 7 11 30.68 1039 10 16 0.00 0.00
5:35 am 05:35 Mostly Cloudy 16 -8.8 9 -12.6 74 74 E 7 11 30.68 1039 10 16 0.00 0.00
5:55 am 05:55 Partly Cloudy 15 -9.5 9 -12.7 78 78 E 6 9 30.68 1039 10 16 0.00 0.00
6:15 am 06:15 Clear 15 -9.4 10 -12.2 80 80 E 6 9 30.68 1039 10 16 0.00 0.00
6:35 am 06:35 Clear 15 -9.5 10 -12.2 81 81 E 6 9 30.68 1039 10 16 0.00 0.00
6:55 am 06:55 Clear 15 -9.6 10 -12.2 82 82 E 6 9 30.68 1039 10 16 0.00 0.00
7:15 am 07:15 Mostly Cloudy 15 -9.5 10 -12.2 81 81 E 6 9 30.68 1039 10 16 0.00 0.00
7:35 am 07:35 Mostly Cloudy 14 -9.8 10 -12.3 82 82 E 5 7 30.68 1039 10 16 0.00 0.00
7:55 am 07:55 Clear 14 -10 10 -12.5 82 82 E 6 9 30.68 1039 10 16 0.00 0.00
8:15 am 08:15 Sunny 14 -10 10 -12.4 83 83 E 8 13 30.68 1039 10 16 0.00 0.00
8:35 am 08:35 Sunny 14 -9.8 10 -12.5 81 81 ENE 8 13 30.68 1039 10 16 0.00 0.00
8:55 am 08:55 Partly Cloudy 14 -9.8 9 -12.7 80 80 E 8 13 30.71 1040 10 16 0.00 0.00
9:15 am 09:15 Cloudy 15 -9.5 9 -12.6 78 78 E 8 13 30.71 1040 10 16 0.00 0.00
9:35 am 09:35 Cloudy 15 -9.3 9 -12.6 77 77 E 10 17 30.71 1040 10 16 0.00 0.00
9:55 am 09:55 Cloudy 16 -8.8 10 -12.5 75 75 ESE 10 17 30.71 1040 10 16 0.00 0.00
10:15 am 10:15 Cloudy 17 -8.3 10 -12.5 72 72 ESE 10 17 30.74 1041 10 16 0.00 0.00
10:35 am 10:35 Cloudy 17 -8.2 10 -12.5 71 71 E 6 9 30.74 1041 10 16 0.00 0.00
10:55 am 10:55 Cloudy 18 -7.6 10 -12.5 68 68 ESE 8 13 30.74 1041 10 16 0.00 0.00
11:15 am 11:15 Partly Cloudy 19 -7.1 9 -12.7 65 65 SE 9 15 30.68 1039 10 16 0.00 0.00
11:35 am 11:35 Partly Cloudy 20 -6.8 9 -13 62 62 SE 7 11 30.68 1039 10 16 0.00 0.00
11:55 am 11:55 Sunny 20 -6.5 8 -13.1 60 60 SE 6 9 30.68 1039 10 16 0.00 0.00
12:15 pm 12:15 Sunny 21 -6 8 -13.4 56 56 ESE 7 11 30.65 1038 10 16 0.00 0.00
12:35 pm 12:35 Sunny 22 -5.6 8 -13.6 54 54 SE 5 7 30.65 1038 10 16 0.00 0.00
12:55 pm 12:55 Sunny 22 -5.6 6 -14.5 50 50 SSE 3 6 30.65 1038 10 16 0.00 0.00
1:15 pm 13:15 Sunny 22 -5.4 7 -14.1 51 51 ESE 6 9 30.65 1038 10 16 0.00 0.00
1:35 pm 13:35 Sunny 23 -5 6 -14.7 47 47 S 3 6 30.62 1037 10 16 0.00 0.00
1:55 pm 13:55 Sunny 24 -4.3 6 -14.3 46 46 S 3 6 30.62 1037 10 16 0.00 0.00
2:15 pm 14:15 Sunny 24 -4.6 6 -14.2 47 47 Calm 30.59 1036 10 16 0.00 0.00
2:35 pm 14:35 Sunny 24 -4.6 6 -14.4 47 47 SSE 5 7 30.59 1036 10 16 0.00 0.00
2:55 pm 14:55 Sunny 24 -4.3 7 -14.1 47 47 Calm 30.59 1036 10 16 0.00 0.00
3:15 pm 15:15 Sunny 24 -4.2 7 -14.1 46 46 SE 3 6 30.59 1036 10 16 0.00 0.00
3:35 pm 15:35 Sunny 25 -4.1 7 -14.1 46 46 ESE 3 6 30.59 1036 10 16 0.00 0.00
3:55 pm 15:55 Sunny 24 -4.2 6 -14.6 45 45 Calm 30.59 1036 10 16 0.00 0.00
4:15 pm 16:15 Sunny 25 -4.1 6 -14.7 44 44 SSE 3 6 30.59 1036 10 16 0.00 0.00
4:35 pm 16:35 Sunny 24 -4.3 6 -14.6 45 45 Calm 30.59 1036 10 16 0.00 0.00
4:55 pm 16:55 Sunny 24 -4.5 6 -14.5 46 46 Calm 30.59 1036 10 16 0.00 0.00
5:15 pm 17:15 Sunny 23 -5.1 6 -14.2 49 49 SSE 3 6 30.59 1036 10 16 0.00 0.00
5:35 pm 17:35 Clear 21 -6 6 -14.2 53 53 Calm 30.62 1037 10 16 0.00 0.00
5:55 pm 17:55 Clear 21 -6 7 -14 54 54 Calm 30.62 1037 10 16 0.00 0.00
6:15 pm 18:15 Clear 19 -7.5 7 -13.8 61 61 Calm 30.62 1037 10 16 0.00 0.00
6:35 pm 18:35 Clear 18 -7.6 8 -13.6 63 63 Calm 30.62 1037 10 16 0.00 0.00
6:55 pm 18:55 Clear 20 -6.6 7 -13.8 57 57 Calm 30.65 1038 10 16 0.00 0.00
7:15 pm 19:15 Clear 19 -7.2 8 -13.4 62 62 Calm 30.65 1038 10 16 0.00 0.00
7:35 pm 19:35 Clear 19 -7.5 8 -13.5 63 63 Calm 30.65 1038 10 16 0.00 0.00
7:55 pm 19:55 Clear 19 -7.5 9 -13 65 65 Calm 30.65 1038 10 16 0.00 0.00
8:15 pm 20:15 Clear 17 -8.2 8 -13.2 68 68 Calm 30.68 1039 10 16 0.00 0.00
8:35 pm 20:35 Clear 17 -8.3 8 -13.1 69 69 Calm 30.68 1039 10 16 0.00 0.00
8:55 pm 20:55 Clear 18 -7.9 8 -13.3 66 66 Calm 30.65 1038 10 16 0.00 0.00
9:15 pm 21:15 Clear 17 -8.1 9 -12.7 70 70 Calm 30.65 1038 10 16 0.00 0.00
9:35 pm 21:35 Mostly Cloudy 19 -7.1 10 -12.1 68 68 Calm 30.65 1038 10 16 0.00 0.00
9:55 pm 21:55 Partly Cloudy 20 -6.5 8 -13.1 60 60 Calm 30.65 1038 10 16 0.00 0.00
10:15 pm 22:15 Partly Cloudy 20 -6.6 8 -13.5 58 58 Calm 30.65 1038 10 16 0.00 0.00
10:35 pm 22:35 Partly Cloudy 20 -6.8 8 -13.5 59 59 Calm 30.65 1038 10 16 0.00 0.00
10:55 pm 22:55 Clear 20 -6.8 8 -13.5 59 59 Calm 30.65 1038 10 16 0.00 0.00
11:15 pm 23:15 Clear 19 -7 8 -13.2 62 62 Calm 30.65 1038 10 16 0.00 0.00
11:35 pm 23:35 Clear 19 -7.5 9 -13 65 65 Calm 30.65 1038 10 16 0.00 0.00
11:55 pm 23:55 Clear 19 -7.4 9 -13 65 65 Calm 30.65 1038 10 16 0.00 0.00

Powered by AerisWeather